THORAD AGENA D DEB, 4970

Orbit data source: Space-Track

THORAD AGENA D DEB, 4970 is space debris in SSO originally from a launch on Wed, 08 Apr 1970 UTC launched from the Air Force Western Test Range (AFWTR). Debris objects in space refer to the collection of defunct objects orbiting the Earth. Examples of debris include non-operational satellites, rocket bodies, and fragments generated from explosions, collisions, or faulty payload assembly.

Loading next visibility...
Identifier
4970, 1970-025GQ
Orbit
SSO
Country
Flag of USUS
Related business
Manufacturer
Unknown
Mission
Spacecraft
Bus & Motor
Unknown
Mass
Unknown
Launch date (UTC)
1970-04-08 (56 years ago)
Launch vehicle
Unknown
Launch site
Air Force Western Test Range (AFWTR)
Object type
Payload
Rocket body
Debris
Shape & HBR
Unknown shape, 0.1 m
Radar Cross Section
Medium (>0.1 m² and <1 m²)

Expand to show TLE details & history
Last TLE update: 2 days ago

TLE from 2 days ago
0 THORAD AGENA D DEB
1 04970U 70025GQ  26167.42302796  .00000340  00000-0  51632-3 0  9996
2 04970  99.9531 132.2970 0035263 230.5753 257.1224 13.59929649774453
Epoch: 2026-06-16T10:09Z
TLE epoch observation values (Epoch: 2026-06-16T10:09:09.615Z)
Latitude
51.67664°
Longitude
-91.92819°
Altitude
1,050.105 km
Speed
7.329 km/s
True Right ascension
21h 40m 13s
True Declination
51° 30' 57"
Sunlit
Object was in daylight at epoch
Visualization orbit readout
Latitude
Unknown
Longitude
Unknown
Altitude
Unknown
Speed
Unknown
Apparent Right ascension
Unknown
Apparent Declination
Unknown
Sunlit
N/A
Visualization observer readout
Local Sidereal Time
22:19:53
Azimuth
Unknown
Elevation
Unknown
Doppler factor
Unknown
Orbital elements
Apogee altitude
1,059.384 km
Perigee altitude
1,007.114 km
Semi-major axis
7,411.386 km
Eccentricity
0.00353
Inclination
99.9531°
RAAN
132.297°
Arg. of periapsis
230.5753°
True anomaly
256.72887°
Mean anomaly
257.1224°
Eccentric anomaly
256.9256°
Mean motion
3.40168 °/min
Orbital period
105.83 mins
BSTAR
0.00051632

Documentation

Showing up to 5 results
|